deb IS-33e

Debris
NORAD ID: 64405 Int'l Des: 2016-053 Owner: INTELU Country: US
HEOCIRCULAR

关于 deb IS-33e

正在加载描述...

实时位置

正在加载3D地球...

即将过境

高度历史

Altitude vs Time

uPlot chart will show altitude changes over time

两行轨道根数

1 64405U 16053AK 25340.07057749 -.00000134 00000-0 00000-0 0 9996
2 64405 1.2311 99.0391 0064127 17.4183 341.7509 0.99507441 3982
Epoch: Dec 6, 2025 • Age: 29 hours

当前状态

高度 35871.4 km
速度 3.08 km/s
星下点 1.20°N, 5.04°W
发射日期 Aug 24, 2016
运行时间 9.2 years
类型 debris

技术详情

分类 Fragmentation Debris
质量 0.00 kg
干质量 0.00 kg
总质量 0.00 kg
长度 0.00 m
直径 0.00 m
跨度 0.00 m
制造商 BOES
阶段状态 In Orbit
所有者/国家 INTELU/US

大型星座

Loading constellations...